sat.trackr.live / text

‹ back to catalog

PE2_FLT1 (TYVAK-0261)

NORAD 59105 · 2024-043H

PAYLOAD ACTIVE UNKNOWN

§ Identity

Operator
Country
US
Launch date
2024-03-04
Launch site
AFWTR
Launch vehicle
Mass (kg)
RCS (m²)

External: N2YO · Heavens-Above · Gunter

§ Orbital elements

Epoch: 2026-09-22T06:46:20.980128Z

Period
96.15 min
Inclination
97.8505°
Eccentricity
0.0006979
Mean motion
14.97583249 rev/d
Perigee alt
569.5 km
Apogee alt
579.2 km
Semi-major
6,952.5 km
B*
9.3157e-5
RAAN
36.2809°
Arg perigee
76.1288°
Mean anomaly
284.0709°
Rev number
13,918

§ Raw data

PE2_FLT1 (TYVAK-0261)1 59105U 24043H   26265.28218727  .00001028  00000+0  93157-4 0  99902 59105  97.8505  36.2809 0006979  76.1288 284.0709 14.97583249139181

JSON: /api/v1/satellites/59105 · /tle

For live sub-satellite position, see the globe view (requires WebGL).

§ Visibility from observer

Set your observer location to see the next 7 days of passes ≥ 10°. The values pass through the URL so the page stays shareable.

No JS? Fill the form by hand. The geolocation button needs JavaScript.

§ Radio — SatNOGS DB

ModeDescriptionDownlinkUplink
QPSK Mode S - QPSK - Payload Transmitter 2.492 GHz
GMSK Mode U - GMSK19k6 400.840 MHz
FM Mode X - Payload Data 8.380 GHz

3 transmitters · refreshed weekly from db.satnogs.org